#timestamp,LO_Frequency,Hit,StdDev 
1600492955.2,286047002.2,P
1600492975.9,286047001.6,P
1600492995.7,286047003.9,P
1600493015.6,286047002.0,N
1600493035.4,286047002.8,Y
1600493055.3,286046999.1,P
1600493075.1,286047001.2,N
1600493076.0,286047001.2,N
1600493095.8,286047001.2,N
1600493115.7,286046998.1,N
1600493135.5,286046998.6,N
1600493155.4,286046999.5,N
1600493175.2,286046998.7,N
1600493195.0,286046998.3,N
1600493195.9,286046998.3,N
1600493215.8,286046999.4,N
1600493235.6,286046998.1,N
1600493255.4,286047000.7,N
1600493275.3,286047000.4,N
1600493295.1,286047002.6,N
1600493315.9,286046998.5,N
1600493335.7,286046994.9,Y
1600493355.5,286046995.6,P
1600493375.4,286046996.8,N
1600493395.2,286046996.7,N
1600493415.0,286046996.5,N
1600493415.9,286046996.5,N
1600493435.8,286046997.5,N
1600493455.6,286046995.5,Y
1600493475.5,286046999.9,P
1600493495.3,286047000.5,N
1600493515.1,286046999.2,N
1600493535.9,286046994.9,Y
1600493555.7,286046996.9,P
1600493575.6,286046999.0,N
1600493595.4,286046998.5,N
1600493615.2,286047000.7,N
1600493635.1,286046999.2,N
1600493636.0,286046999.2,N
1600493655.8,286046999.6,N
1600493675.6,286046998.5,N
1600493695.5,286046999.9,N
1600493715.3,286046999.6,N
1600493735.2,286046999.3,N
1600493755.9,286046996.5,Y
1600493775.7,286046999.0,P
1600493795.6,286046998.8,P
1600493815.4,286047001.1,P
1600493835.2,286047002.1,N
1600493855.1,286047000.3,N
1600493856.0,286047000.3,N
1600493875.8,286047000.1,N
1600493895.7,286047004.4,Y
1600493915.5,286047000.1,P
1600493935.3,286046998.2,P
1600493955.2,286047002.6,N
1600493975.0,286047004.5,N
1600493975.9,286047004.5,N
1600493995.8,286047007.1,N
1600494015.6,286047006.0,N
1600494035.4,286047005.7,N
1600494055.3,286047007.2,N
1600494075.1,286047007.4,N
1600494095.8,286047003.6,N
1600494115.7,286047003.7,N
1600494135.5,286047003.2,N
1600494155.4,286047001.8,N
1600494175.2,286047001.4,N
1600494195.0,286047003.7,N
1600494195.9,286047003.7,N
1600494215.8,286047004.1,N
1600494235.6,286047003.8,N
1600494255.4,286047005.1,N
1600494275.3,286047007.6,Y
1600494295.1,286047001.9,P
1600494315.9,286047005.8,P
1600494335.7,286047003.2,N
1600494355.5,286047002.0,N
1600494375.4,286047001.7,N
1600494395.2,286047005.7,Y
1600494415.1,286047002.5,P
1600494416.0,286047002.5,P
1600494435.8,286047002.0,P
1600494455.6,286047000.5,N
1600494475.5,286046999.1,N
1600494495.3,286046996.7,N
1600494515.1,286047001.2,N
1600494535.9,286047002.3,N
1600494555.7,286047000.5,N
1600494575.6,286047000.4,N
1600494595.4,286047002.6,N
1600494615.2,286047000.0,N
1600494635.1,286047000.3,N
1600494636.0,286047000.3,N
1600494655.8,286046999.4,N
1600494675.6,286046997.4,N
1600494695.5,286046997.4,N
1600494715.3,286046996.8,N
1600494735.2,286046999.0,N
1600494755.9,286047001.0,N
1600494775.7,286047002.6,N
1600494795.6,286046999.8,N
1600494815.4,286047000.0,N
1600494835.3,286047000.1,N
1600494855.1,286047002.8,N
1600494856.0,286047002.8,N
1600494875.8,286047000.0,N
1600494895.7,286046999.8,N
1600494915.5,286047002.5,N
1600494935.3,286046999.3,N
1600494955.2,286046996.9,N
1600494975.0,286046997.8,N
1600494975.9,286046997.8,N
1600494995.8,286046999.3,N
1600495015.6,286046999.2,N
1600495035.4,286046997.3,N
1600495055.3,286046997.2,N
1600495075.1,286046996.9,N
1600495095.9,286046995.0,N
1600495115.7,286046995.5,N
1600495135.5,286046999.6,N
1600495155.4,286046996.0,N
1600495175.2,286046991.9,Y
1600495195.1,286046993.6,P
1600495196.0,286046993.6,N
